This demonstration page uses our WeatherBlox Daily Observations layout. Learn more.

Left ArrowRight Arrow

38.80484, -77.04692

Hourly Observations for December 16, 2020

Temp ( °F °C ) Dew Point ( °F °C ) Humidity (%) Winds ( mph kmh ) Pressure ( in mb ) Visibility ( mi km ) Precip ( " mm )
12:52 am 00:52 Cloudy 33 0.6 24 -4.4 70 70 ENE 8 13 30.33 1027 10 16 N/A
1:52 am 01:52 Mostly Cloudy 32 undefined 24 -4.4 73 73 NE 7 11 30.33 1027 10 16 N/A
2:52 am 02:52 Cloudy 32 undefined 23 -5 69 69 NE 10 17 30.33 1027 10 16 N/A
3:52 am 03:52 Cloudy 32 undefined 23 -5 69 69 NNE 8 13 30.34 1028 10 16 N/A
4:52 am 04:52 Cloudy 32 undefined 22 -5.6 66 66 ENE 12 19 30.31 1026 10 16 N/A
5:52 am 05:52 Cloudy 32 undefined 22 -5.6 66 66 NNE 12 19 30.32 1027 10 16 N/A
6:52 am 06:52 Cloudy 32 undefined 22 -5.6 66 66 NNE 8 13 30.31 1027 10 16 N/A
7:52 am 07:52 Cloudy 33 0.6 23 -5 66 66 NE 12 19 30.29 1026 10 16 N/A
8:52 am 08:52 Cloudy 32 undefined 22 -5.6 66 66 NNE 13 20 30.27 1025 10 16 N/A
9:52 am 09:52 Cloudy 33 0.6 23 -5 66 66 NE 13 20 30.25 1024 10 16 N/A
10:25 am 10:25 Cloudy 33 0.6 23 -5 66 66 NNE 12 19 30.25 1024 5 8 0.00 0.00
10:38 am 10:38 Cloudy with Light Snow 33 0.6 24 -4.4 70 70 NNE 14 22 30.24 1024 4 6 0.00 0.00
10:43 am 10:43 Cloudy with Light Snow 33 0.6 25 -3.9 72 72 NNE 13 20 30.24 1024 2 3 0.00 0.00
10:52 am 10:52 Cloudy with Light Snow 33 0.6 25 -3.9 72 72 NNE 14 22 30.22 1023 3 5 0.01 0.25
11:31 am 11:31 Cloudy 32 undefined 27 -2.8 82 82 NNE 17 28 30.19 1022 5 8 0.02 0.51
11:52 am 11:52 Cloudy 32 undefined 27 -2.8 82 82 NNE 16 26 30.18 1022 3 5 0.04 1.02
12:43 pm 12:43 Cloudy with Mist and Fog 32 undefined 29 -1.7 88 88 NNE 15 24 30.13 1020 4 6 0.07 1.78
12:52 pm 12:52 Cloudy with Mist and Fog 32 undefined 29 -1.7 88 88 NNE 15 24 30.12 1020 4 6 0.08 2.03
1:24 pm 13:24 Cloudy with Light Rain/Snow 32 undefined 30 -1.1 92 92 NNE 16 26 30.08 1019 3 5 0.04 1.02
1:52 pm 13:52 Cloudy with Light Rain 33 0.6 30 -1.1 89 89 NNE 17 28 30.05 1018 5 8 0.07 1.78
2:52 pm 14:52 Cloudy with Rain 34 1.1 32 undefined 92 92 NE 14 22 29.99 1016 3 5 0.13 3.30
3:15 pm 15:15 Cloudy with Light Rain 34 1.1 32 undefined 92 92 NNE 15 24 29.98 1015 4 6 0.05 1.27
3:31 pm 15:31 Cloudy with Heavy Rain 34 1.1 32 undefined 92 92 NE 20 31 29.96 1015 3 5 0.08 2.03
3:52 pm 15:52 Cloudy with Rain 35 1.7 32 undefined 89 89 NE 20 31 29.94 1014 5 8 0.14 3.56
4:52 pm 16:52 Cloudy with Rain 35 1.7 33 0.6 93 93 NE 15 24 29.91 1013 4 6 0.16 4.06
5:35 pm 17:35 Cloudy with Rain 36 2.2 34 1.1 93 93 NE 21 33 29.85 1011 5 8 0.10 2.54
5:45 pm 17:45 Cloudy with Light Rain 37 2.8 34 1.1 89 89 NE 24 39 29.84 1011 5 8 0.11 2.79
5:52 pm 17:52 Cloudy with Light Rain 37 2.8 34 1.1 89 89 NE 22 35 29.84 1011 5 8 0.11 2.79
5:59 pm 17:59 Cloudy with Light Rain 37 2.8 34 1.1 89 89 NE 21 33 29.83 1010 5 8 0.01 0.25
6:52 pm 18:52 Cloudy with Light Rain 37 2.8 35 1.7 93 93 NNE 15 24 29.82 1010 5 8 0.08 2.03
7:18 pm 19:18 Cloudy with Light Rain 37 2.8 35 1.7 93 93 NNE 16 26 29.80 1009 6 10 0.01 0.25
7:52 pm 19:52 Cloudy with Light Rain 37 2.8 35 1.7 93 93 NNE 12 19 29.80 1009 4 6 0.04 1.02
8:52 pm 20:52 Cloudy with Light Rain/Snow 36 2.2 35 1.7 97 97 NNW 15 24 29.78 1008 4 6 0.06 1.52
9:05 pm 21:05 Cloudy with Light Rain/Snow 36 2.2 35 1.7 97 97 NNW 17 28 29.77 1008 3 5 0.02 0.51
9:34 pm 21:34 Cloudy with Light Rain/Snow 37 2.8 35 1.7 93 93 NW 16 26 29.80 1009 3 4 0.05 1.27
9:52 pm 21:52 Cloudy with Light Rain/Snow 36 2.2 33 0.6 89 89 NW 20 31 29.80 1009 2 3 0.10 2.54
10:10 pm 22:10 Cloudy with Light Rain 34 1.1 32 undefined 92 92 NW 20 31 29.79 1009 5 8 0.05 1.27
10:52 pm 22:52 Cloudy with Light Snow 33 0.6 31 -0.6 92 92 NNW 17 28 29.77 1008 5 8 0.08 2.03
11:12 pm 23:12 Cloudy with Light Rain 33 0.6 31 -0.6 92 92 N 22 35 29.71 1006 10 16 0.01 0.25
11:34 pm 23:34 Cloudy 33 0.6 30 -1.1 89 89 W 20 31 29.80 1009 10 16 0.01 0.25
11:52 pm 23:52 Cloudy 33 0.6 29 -1.7 85 85 WNW 15 24 29.81 1010 10 16 0.01 0.25

Powered by AerisWeather